This demonstration page uses our WeatherBlox Daily Observations layout. Learn more.

36.17497, -115.13722

Hourly Observations for July 5, 2015

Temp ( °F °C ) Dew Point ( °F °C ) Humidity (%) Winds ( mph kmh ) Pressure ( in mb ) Visibility ( mi km ) Precip ( " mm )
12:53 am 00:53 Clear 90 32 52 11 27 27 W 5 7 29.65 1004 10 16.09344 0 0
1:53 am 01:53 Clear 88 31 52 11 29 29 W 7 11 29.65 1004 10 16.09344 0 0
2:53 am 02:53 Clear 90 32 48 9 24 24 N 9 15 29.65 1004 10 16.09344 0 0
3:53 am 03:53 Clear 88 31 48 9 25 25 WNW 10 17 29.65 1004 10 16.09344 0 0
4:53 am 04:53 Clear 88 31 48 9 25 25 NNW 7 11 29.71 1006 10 16.09344 0 0
5:53 am 05:53 Sunny 84 29 48 9 29 29 NNW 6 9 29.74 1007 10 16.09344 0 0
6:53 am 06:53 Sunny 90 32 50 10 26 26 N 5 7 29.71 1006 10 16.09344 0 0
7:53 am 07:53 Sunny 91 33 50 10 24 24 NE 6 9 29.74 1007 10 16.09344 0 0
8:53 am 08:53 Sunny 93 34 48 9 21 21 Calm 29.74 1007 10 16.09344 0 0
9:53 am 09:53 Mostly Sunny 93 34 50 10 23 23 Calm 29.74 1007 10 16.09344 0 0
10:53 am 10:53 Sunny 97 36 48 9 19 19 Calm 29.71 1006 10 16.09344 0 0
11:53 am 11:53 Sunny 100 38 48 9 17 17 N 6 9 29.68 1005 10 16.09344 0 0
12:53 pm 12:53 Sunny 100 38 48 9 17 17 S 9 15 29.68 1005 10 16.09344 0 0
1:44 pm 13:44 Mostly Cloudy 91 33 52 11 26 26 NNW 23 37 29.71 1006 10 16.09344 0 0
1:53 pm 13:53 Partly Cloudy 91 33 48 9 23 23 NNW 21 33 29.71 1006 10 16.09344 0 0
2:53 pm 14:53 Mostly Cloudy with Light Rain 91 33 54 12 28 28 WSW 8 13 29.74 1007 10 16.09344 0.001 0.001
3:53 pm 15:53 Sunny 93 34 48 9 21 21 SW 14 22 29.71 1006 10 16.09344 0.001 0.001
4:53 pm 16:53 Sunny 93 34 48 9 21 21 SSW 7 11 29.68 1005 10 16.09344 0 0
5:53 pm 17:53 Sunny 93 34 48 9 21 21 SSW 12 19 29.68 1005 10 16.09344 0 0
6:53 pm 18:53 Sunny 93 34 46 8 20 20 SSE 9 15 29.68 1005 10 16.09344 0 0
7:53 pm 19:53 Sunny 91 33 48 9 23 23 E 7 11 29.68 1005 10 16.09344 0 0
8:53 pm 20:53 Clear 91 33 48 9 23 23 SSE 7 11 29.71 1006 10 16.09344 0 0
9:53 pm 21:53 Clear 86 30 54 12 33 33 N 23 37 29.77 1008 10 16.09344 0 0
10:53 pm 22:53 Clear 84 29 54 12 35 35 NNW 28 44 29.8 1009 10 16.09344 0 0
11:53 pm 23:53 Clear 84 29 52 11 33 33 NW 20 31 29.8 1009 10 16.09344 0 0

Powered by AerisWeather